Change the Weather History Date:

Saturday, October 20, 2012

  Actual Average Record
Temperature  
Mean Temperature 72 °F -  
Max Temperature 88 °F 77 °F 90 °F (2004)
Min Temperature 57 °F 58 °F 44 °F (1999)
Cooling Degree Days 7    
Growing Degree Days 22 (Base 50)    
Moisture  
Dew Point 63 °F    
Average Humidity 71    
Maximum Humidity 90    
Minimum Humidity 51    
Precipitation  
Precipitation 0.00 in - - ()
Sea Level Pressure  
Sea Level Pressure 29.87 in    
Wind  
Wind Speed 3 mph (SSE)    
Max Wind Speed 13 mph    
Max Gust Speed -    
Visibility 10 miles    
Events      
Averages and records for this station are not official NWS values.
T = Trace of Precipitation, MM = Missing Value Source: NWS Daily Summary

Daily Weather History Graph

Daily Weather History Graph

Search for Another Location

Airport or City:

Trip Planner

Search our weather history database for the weather conditions in past years. The results will help you decide how hot, cold, wet, or windy it might be!

Date:

Astronomy

Oct. 20, 2012 Rise Set
Actual Time 7:38 AM CDT 6:57 PM CDT
Civil Twilight 7:14 AM CDT 7:21 PM CDT
Nautical Twilight 6:46 AM CDT 7:49 PM CDT
Astronomical Twilight 6:19 AM CDT 8:17 PM CDT
Moon 1:03 PM CDT (10/20) 11:57 PM CDT (10/20)
Length of Visible Light 12h 07m
Length of Day
11h 19m
Waxing Crescent, 34% of the Moon is Illuminated
Oct 20
Waxing Crescent
Oct 21
First Quarter
Oct 29
Full
Nov 6
Last Quarter
Nov 13
New

Hourly Weather History & Observations

Time (CDT) Temp. Heat Index Dew Point Humidity Pressure Visibility Wind Dir Wind Speed Gust Speed Precip Events Conditions
12:53 AM 63.0 °F - 48.0 °F 58% 29.91 in 10.0 mi Calm Calm - N/A   Clear
1:53 AM 59.0 °F - 50.0 °F 72% 29.91 in 10.0 mi Calm Calm - N/A   Clear
2:53 AM 59.0 °F - 50.0 °F 72% 29.90 in 10.0 mi Calm Calm - N/A   Clear
3:53 AM 57.9 °F - 52.0 °F 81% 29.89 in 10.0 mi Calm Calm - N/A   Partly Cloudy
4:53 AM 62.1 °F - 55.0 °F 78% 29.88 in 10.0 mi Calm Calm - N/A   Overcast
5:53 AM 63.0 °F - 57.0 °F 81% 29.88 in 10.0 mi Calm Calm - N/A   Overcast
6:13 AM 64.4 °F - 55.4 °F 73% 29.90 in 10.0 mi Calm Calm - N/A   Overcast
6:53 AM 66.0 °F - 57.0 °F 73% 29.88 in 10.0 mi Calm Calm - N/A   Overcast
7:53 AM 66.0 °F - 55.9 °F 70% 29.90 in 10.0 mi Calm Calm - N/A   Overcast
8:13 AM 66.2 °F - 57.2 °F 73% 29.92 in 10.0 mi Calm Calm - N/A   Overcast
8:53 AM 66.9 °F - 57.9 °F 73% 29.91 in 10.0 mi Calm Calm - N/A   Overcast
9:46 AM 69.8 °F - 60.8 °F 73% 29.94 in 10.0 mi SSE 3.5 mph - N/A   Overcast
9:53 AM 70.0 °F - 62.1 °F 76% 29.93 in 10.0 mi SSE 3.5 mph - N/A   Overcast
10:19 AM 71.6 °F - 64.4 °F 78% 29.94 in 10.0 mi Calm Calm - N/A   Overcast
10:39 AM 71.6 °F - 64.4 °F 78% 29.94 in 10.0 mi SSE 3.5 mph - N/A   Overcast
10:53 AM 73.0 °F - 66.0 °F 79% 29.92 in 10.0 mi SSE 3.5 mph - N/A   Overcast
11:02 AM 73.4 °F - 66.2 °F 78% 29.94 in 10.0 mi ESE 3.5 mph - N/A   Overcast
11:53 AM 78.1 °F - 70.0 °F 76% 29.90 in 8.0 mi SSW 11.5 mph - N/A   Overcast
12:08 PM 78.8 °F - 69.8 °F 74% 29.92 in 8.0 mi South 11.5 mph - N/A   Overcast
12:32 PM 80.6 °F 83.9 °F 69.8 °F 70% 29.91 in 9.0 mi South 11.5 mph - N/A   Overcast
12:53 PM 81.0 °F 84.4 °F 70.0 °F 69% 29.87 in 8.0 mi South 10.4 mph - N/A   Overcast
1:53 PM 84.0 °F 87.8 °F 69.1 °F 61% 29.83 in 10.0 mi South 8.1 mph - N/A   Overcast
2:53 PM 84.9 °F 88.2 °F 68.0 °F 57% 29.80 in 10.0 mi SSW 10.4 mph - N/A   Mostly Cloudy
3:53 PM 87.1 °F 89.9 °F 66.9 °F 51% 29.78 in 10.0 mi South 11.5 mph - N/A   Mostly Cloudy
4:53 PM 87.1 °F 89.9 °F 66.9 °F 51% 29.76 in 10.0 mi South 9.2 mph - N/A   Clear
5:53 PM 86.0 °F 88.8 °F 66.9 °F 53% 29.76 in 10.0 mi South 6.9 mph - N/A   Clear
6:53 PM 82.9 °F 85.0 °F 66.0 °F 56% 29.76 in 10.0 mi SSE 4.6 mph - N/A   Clear
7:53 PM 81.0 °F 83.8 °F 68.0 °F 65% 29.79 in 10.0 mi SE 9.2 mph - N/A   Clear
8:53 PM 79.0 °F - 71.1 °F 77% 29.81 in 9.0 mi SE 12.7 mph - N/A   Clear
9:53 PM 78.1 °F - 71.1 °F 79% 29.83 in 9.0 mi SSE 12.7 mph - N/A   Clear
10:53 PM 75.9 °F - 72.0 °F 87% 29.83 in 8.0 mi SSE 9.2 mph - N/A   Clear
11:53 PM 75.0 °F - 72.0 °F 90% 29.83 in 7.0 mi SSE 10.4 mph - N/A   Clear